Regional Weather Roundup
Issued by NWS Upton, NY

Current Version | Previous Version | Text Only | Print | Product List | Glossary On
Versions: 1 2 3 4 5 6 7 8 9 10 11 12 13 14 15 16 17 18 19 20 21 22 23 24 25 26
000
ASUS41 KOKX 241105
RWROKX

REGIONAL WEATHER ROUNDUP
NATIONAL WEATHER SERVICE NEW YORK NY
700 AM EDT THU APR 24 2014

NOTE: "FAIR" INDICATES FEW OR NO CLOUDS BELOW 12,000 FEET WITH NO
SIGNIFICANT WEATHER AND/OR OBSTRUCTIONS TO VISIBILITY.

NYZ071-072-176-178-NJZ106-104-241200-
NEW YORK CITY METRO AREA


CITY           SKY/WX    TMP DP  RH WIND       PRES   REMARKS
CENTRAL PARK   CLEAR     43  17  35 MISG      29.91R
LAGUARDIA APRT PTCLDY    43  18  36 NW20G26   29.89R
KENNEDY INTL   PTCLDY    44  17  33 NW18G28   29.89R
NEWARK/LIBERTY CLEAR     43  18  36 NW13G21   29.91R
TETERBORO      CLEAR     44  18  35 NW9       29.89R
$$

NYZ177-179-078>081-241200-
LONG ISLAND NEW YORK

CITY           SKY/WX    TMP DP  RH WIND       PRES   REMARKS
FARMINGDALE    CLEAR     42  23  46 NW7       29.86R
ISLIP          MOSUNNY   43  25  49 W10       29.83R
SHIRLEY        SUNNY     44  15  31 N13       29.84R
WESTHAMPTON    SUNNY     44  18  35 NW18G31   29.81R
MONTAUK POINT    N/A     45  25  45 NW18G29   29.76R
$$

NYZ052-065-067-241200-
HUDSON VALLEY

CITY           SKY/WX    TMP DP  RH WIND       PRES   REMARKS
WHITE PLAINS   CLEAR     41  17  38 NW17G23   29.84R
NEWBURGH       CLEAR     37  19  48 W7        29.89R WCI  32
MONTGOMERY     CLEAR     40  16  37 NW13G23   29.89R WCI  32
POUGHKEEPSIE   CLEAR     42  14  32 W14G21    29.87R
ALBANY         CLEAR     38  15  39 W16G24    29.88R WCI  29
$$

NJZ001-105-106-008-010-013-015-019>022-104-241200-
NEW JERSEY

CITY           SKY/WX    TMP DP  RH WIND       PRES   REMARKS
NEWARK/LIBERTY CLEAR     43  18  36 NW13G21   29.91R
TETERBORO      CLEAR     44  18  35 NW9       29.89R
CALDWELL       CLEAR     41  17  38 NW12G24   29.92R
MORRISTOWN     CLEAR     43  16  33 NW12G17   29.92R
SOMERVILLE     CLEAR     41  17  38 NW9G22    29.93R
LINDEN         FAIR      44  19  37 NW8       29.94R
SUSSEX         CLEAR     41  17  38 VRB5      29.93R
ANDOVER          N/A     38  17  42 N9        29.94R WCI  31
TRENTON        CLEAR     42  18  37 NW13G21   29.96R
MILLVILLE      CLEAR     43  25  49 NW10      30.01R
ATLANTIC CITY  CLEAR     42  25  50 W13       29.98R
WRIGHTSTOWN    CLEAR     42  20  42 W13       29.94R
TOMS RIVER     CLEAR     39  25  56 W8        29.95R WCI  34
BELMAR         CLEAR     41  19  42 W7        29.92R
$$

PAZ047>061-062-071-241200-
EASTERN PENNSYLVANIA

CITY           SKY/WX    TMP DP  RH WIND       PRES   REMARKS
PHILADELPHIA   CLEAR     42  21  43 W12       30.02R
ALLENTOWN      CLEAR     40  16  37 NW13      29.98R WCI  32
SCRANTON       CLEAR     35  18  49 VRB7      29.98R WCI  29
$$

CTZ002-004>006-009-010-012-RIZ004-006-007-MAZ004-011-015-241200-
SOUTHERN NEW ENGLAND
 IN CT

CITY           SKY/WX    TMP DP  RH WIND       PRES   REMARKS
BRADLEY INTL   SUNNY     41  15  35 NW13G25   29.78R
HARTFORD       SUNNY     42  15  33 N17       29.80R
DANBURY        CLEAR     40  14  34 VRB7      29.84R
WTRBRY/OXFORD  SUNNY     37  14  38 N17G29    29.83R WCI  28
BRIDGEPORT     SUNNY     44  14  29 NW15G31   29.83R
MERIDEN        SUNNY     41  15  35 NW16      29.81R
NEW HAVEN      SUNNY     44  17  33 NW12G23   29.80R
CHESTER        FAIR      39  18  41 NW14G26   29.77R WCI  31
GROTON         SUNNY     43  21  41 NW20G26   29.75R
WILLIMANTIC    SUNNY     41  19  41 NW10G20   29.75R

 IN RI

CITY           SKY/WX    TMP DP  RH WIND       PRES   REMARKS
PROVIDENCE     MOSUNNY   43  17  35 NW20G30   29.69R
BLOCK ISLAND   SUNNY     43  25  49 NW14G28   29.71R
WESTERLY       SUNNY     43  21  41 NW9G23    29.74R

 IN MA

CITY           SKY/WX    TMP DP  RH WIND       PRES   REMARKS
BOSTON         MOSUNNY   43  19  38 NW21G36   29.65R
WORCESTER      SUNNY     37  16  42 NW26G40   29.68R WCI  25
WESTFIELD      SUNNY     41  15  35 NW18      29.77R
PROVINCETOWN   MOSUNNY   43  28  56 MISG      29.62R
NANTUCKET      MOSUNNY   45  25  45 NW28G39   29.60R
$$

ANZ330-335-338-340-345-350-353-355-241200-
COASTAL MARINE OBSERVATIONS


STATION/POSITION TIME  SKY/WX   TEMP    WIND        PRES    VSBY  WAVE
                                AIR SEA DIR/SP/G                  HT/PER
                 (UTC)          (F)     (DEG/KT/KT) (MB)    (MI)  (FT/S)
NY HARB ENTRANCE 1100            44 44  VRB 21/ 27  1011.5
4S FIRE IS       1000               45                N/A           3/ 4
23SW MTP         1100            44 43  310/ 19/ 23 1007.9          4/ 6
HUDSON CANYON    1000            45 45  310/ 23/ 27 1009.2          7/ 7
EXECUTION ROCKS  1100            45 45  320/ 14/ 19   N/A
WESTERN LI SOUND 1100            44     300/ 10/ 14   N/A           1
CENTRAL LI SOUND 1100            43 43  320/ 19/ 27   N/A           3/ 4
EASTERN LI SOUND NOT AVBL
ROBBINS REEF     1100            43     320/ 20/ 26   N/A
$$


>>>>>>>>>>>>>>>>>>>>>>>>>>>> KEY <<<<<<<<<<<<<<<<<<<<<<<<<<<
>                                                          <
>     SKY/WX - SKY CONDITION/PRESENT WEATHER               <
>     TMP    - TEMPERATURE IN FAHRENHEIT                   <
>     DP     - DEWPOINT IN FAHRENHEIT                      <
>     RH     - RELATIVE HUMIDITY IN PERCENT                <
>     WIND   - DIRECTION AND SPEED IN MPH                  <
>     PRES   - MEAN SEA LEVEL PRESSURE IN INCHES OF HG     <
>     WCI    - WIND CHILL INDEX                            <
>     VSB    - VISIBILITY IN MILES                         <
>     HX     - HEAT INDEX                                  <
>     TC     - TEMPERATURE IN CELSIUS                      <
>     VRB    - VARIABLE WIND DIRECTION                     <
>                                                          <
>>>>>>>>>>>>>>>>>>>>>>>>>>>> KEY <<<<<<<<<<<<<<<<<<<<<<<<<<<





USA.gov is the U.S. government's official web portal to all federal, state and local government web resources and services.